Regional Weather Roundup
Issued by NWS Kansas City/Pleasant Hill, MO

Home | Current Version | Previous Version | Text Only | Print | Product List | Glossary On
Versions: 1 2 3 4 5 6 7 8 9 10 11 12 13 14 15 16 17 18 19 20 21 22 23 24 25 26 27 28 29 30 31 32 33 34 35 36 37 38 39 40 41 42 43 44 45 46 47 48 49 50
000
ASUS43 KEAX 291110
RWREAX

WEATHER ROUNDUP FOR EASTERN KANSAS AND NORTHWEST MISSOURI
NATIONAL WEATHER SERVICE KANSAS CITY/PLEASANT HILL MO
600 AM CDT FRI MAY 29 2015

KSZ040-057-103>105-MOZ028-029-037-043-291200-
...KANSAS CITY METROPOLITAN AREA...

CITY           SKY/WX    TMP DP  RH WIND       PRES   REMARKS
K.C. INTL      LGT RAIN  63  63 100 S10       29.95R FOG
K.C. DOWNTOWN  LGT RAIN  66  62  87 S6        29.95R
LEES SUMMIT    CLOUDY    64  63  96 S3        29.97R
OLATHE - IXD   TSTM      65  65 100 SW10      29.99R FOG
OLATHE - OJC   HVY RAIN  65  65 100 SW7       29.98R FOG
LAWRENCE       LGT RAIN  66  63  90 S8        29.96R FOG

$$

MOZ001>008-011>017-020>025-030>033-038>040-044>046-053-054-291200-
...NORTHERN AND CENTRAL MISSOURI...

CITY           SKY/WX    TMP DP  RH WIND       PRES   REMARKS
ST. JOSEPH     CLOUDY    64  63  96 S8        29.91F
MOSBY          CLOUDY    63  63 100 CALM      29.96R
WARRENSBURG    FOG       64  63  94 S6        29.96R VSB 1
WHITEMAN AFB   MOCLDY    66  65  99 S7        29.96R
CLINTON        MOCLDY    64  64 100 CALM      29.98R
SEDALIA        MOCLDY    65  63  93 S5        29.98R
WARSAW         NOT AVBL
CHILLICOTHE      N/A     64  62  93 CALM      29.96S
KIRKSVILLE     CLOUDY    65  65 100 S5        29.96R FOG

$$

MOZ041-047>049-056>058-063>065-088>090-097-291200-
...EASTERN AND SOUTHERN MISSOURI...

CITY           SKY/WX    TMP DP  RH WIND       PRES   REMARKS
ST. LOUIS INTL CLOUDY    72  65  78 S8        30.01R
SPIRIT OF STL  CLOUDY   N/A N/A N/A CALM      29.99R
COLUMBIA       MOCLDY    65  64  97 S7        29.99R
JEFFERSON CITY MOCLDY    66  63  90 CALM      29.99R
ROLLA          MOCLDY    65  63  93 S10       30.00R
OSAGE BEACH    PTCLDY    64  61  88 S7        29.99R
SPRINGFIELD    PTCLDY    66  61  84 S9        30.00R
BRANSON        CLEAR     64  61  88 CALM      30.02R
JOPLIN         CLOUDY    68  64  87 S5        30.00R
WEST PLAINS    CLEAR     65  62  90 SW3       30.04R

$$

IAZ060-094-KSZ022-034>040-054-083-096-NEZ052-066-093-291200-
...KANSAS...SOUTHEAST NEBRASKA AND IOWA...

CITY           SKY/WX    TMP DP  RH WIND       PRES   REMARKS
TOPEKA         CLOUDY    67  63  87 S8        29.91F
MANHATTAN      MOCLDY    64  64 100 CALM      29.93R
EMPORIA        CLOUDY    64  62  93 S8        29.95R
CHANUTE        CLOUDY    66  64  93 E7        29.97S
WICHITA        CLOUDY    68  66  94 NE5       29.95R
OMAHA          CLOUDY    66  63  90 S13       29.89R
LINCOLN        CLOUDY    64  61  90 SW3       29.90R
FALLS CITY     CLOUDY    64  62  93 S10       29.92R
LAMONI         FOG       65  62  90 SE6       29.93F VSB 1/4
DES MOINES     PTCLDY    63  61  93 S7        29.92F

$$



USA.gov is the U.S. government's official web portal to all federal, state and local government web resources and services.